This is the latest recevied weather packets stored in our database for station/object DJ2DS-13. If no packets are shown the sender has not sent any weather packets the latest 1 day(s).
| Time | Temp. | Humidity | Pressure | Rain* | Wind** | Luminosity | Snow |
|---|---|---|---|---|---|---|---|
| 1778035917 | 6.67° C | 91% | 1007.9 hPa | 0 mm | - | 0 W/m² | - |
| 1778035617 | 6.67° C | 91% | 1007.9 hPa | 0 mm | - | 0 W/m² | - |
| 1778035313 | 6.67° C | 91% | 1008.1 hPa | 0 mm | - | 0 W/m² | - |
| 1778035015 | 6.67° C | 91% | 1008.1 hPa | 0 mm | - | 0 W/m² | - |
| 1778034412 | 6.67° C | 90% | 1008.1 hPa | 0 mm | - | 0 W/m² | - |
| 1778033516 | 6.67° C | 90% | 1008.2 hPa | 0 mm | - | 0 W/m² | - |
| 1778033211 | 6.67° C | 90% | 1008.1 hPa | 0 mm | - | 0 W/m² | - |
| 1778032911 | 6.67° C | 90% | 1008.1 hPa | 0 mm | - | 0 W/m² | - |
| 1778032610 | 6.67° C | 90% | 1008.3 hPa | 0 mm | - | 0 W/m² | - |
| 1778032309 | 6.67° C | 90% | 1008.2 hPa | 0 mm | - | 0 W/m² | - |
| 1778032006 | 6.67° C | 90% | 1008.3 hPa | 0 mm | - | 0 W/m² | - |
| 1778031707 | 7.22° C | 90% | 1008.4 hPa | 0 mm | - | 0 W/m² | - |
| 1778031407 | 7.22° C | 90% | 1008.4 hPa | 0 mm | - | 0 W/m² | - |
| 1778030807 | 7.22° C | 89% | 1008.4 hPa | 0 mm | - | 0 W/m² | - |
| 1778030504 | 7.22° C | 90% | 1008.3 hPa | 0 mm | - | 0 W/m² | - |
| 1778028399 | 8.33° C | 89% | 1008.3 hPa | 0 mm | - | 0 W/m² | - |
| 1778028099 | 8.33° C | 89% | 1008.4 hPa | 0 mm | - | 0 W/m² | - |
| 1778027799 | 8.33° C | 89% | 1008.3 hPa | 0 mm | - | 0 W/m² | - |
| 1778026902 | 8.89° C | 89% | 1008.5 hPa | 0 mm | - | 0 W/m² | - |
| 1778026600 | 8.89° C | 89% | 1008.5 hPa | 0 mm | - | 0 W/m² | - |
| 1778024500 | 9.44° C | 88% | 1008.6 hPa | 0 mm | - | 0 W/m² | - |
| 1778022999 | 10° C | 88% | 1008.9 hPa | 0 mm | - | 0 W/m² | - |
| 1778022399 | 10° C | 87% | 1008.9 hPa | 0 mm | - | 0 W/m² | - |
| 1778021499 | 9.44° C | 87% | 1008.9 hPa | 0 mm | - | 0 W/m² | - |
| 1778018195 | 9.44° C | 85% | 1009.4 hPa | 0 mm | - | 0 W/m² | - |
* Rain latest hour (hover to see other rain measurements)
** Current wind speed in m/s (hover to see current wind gust speed)